Regional Weather Roundup
Issued by NWS Jackson, KY

Home | Current Version | Previous Version | Graphics & Text | Print | Product List | Glossary On
Versions: 1 2 3 4 5 6 7 8 9 10 11 12 13 14 15 16 17 18 19 20 21 22 23 24 25 26 27
000
ASUS43 KJKL 280910
RWRJKL

EAST KENTUCKY HOURLY WEATHER ROUNDUP
NATIONAL WEATHER SERVICE JACKSON KY
500 AM EDT SAT MAY 28 2016

NOTE: "FAIR" INDICATES FEW OR NO CLOUDS BELOW 12,000 FEET WITH
NO SIGNIFICANT WEATHER AND/OR OBSTRUCTIONS TO VISIBILITY.

* THESE REPORTS ARE NOT UNDER NWS QUALITY CONTROL AND MAY NOT
  REPORT WEATHER SUCH AS PRECIPITATION AND FOG.

KYZ079-080-083-085-087-088-110-112-115-119-120-281000
...EASTERN KENTUCKY...

CITY           SKY/WX    TMP DP  RH WIND       PRES   REMARKS
JACKSON        CLEAR     67  63  87 SE3       30.09S
LONDON         PTCLDY    65  61  87 CALM      30.09R
SOMERSET*      CLEAR     63  63 100 CALM      30.08S
MONTICELLO*    CLEAR     67  64  90 VRB7      30.08S
WILLIAMSBURG*  SUNNY     63  63 100 SE3       30.09R
MIDDLESBORO*   FOG       61  61 100 CALM      30.12R VSB 1/4
HARLAN APT*    CLOUDY    63  63 100 CALM      30.13S
HAZARD APT*    FOG       64  64 100 CALM      30.10S VSB 1
BLACK MTN*       N/A     61  59  94 E1          N/A
PIKE CO APT*     N/A     67  64  91 SE6       30.11S
BIG SANDY APT* SUNNY     67  64  91 SE3       30.11R
MOREHEAD APT*  CLOUDY    68  63  83 S6        30.09R
ASHLAND*       CLOUDY    68  66  94 E3        30.05R
$$

KYZ035-036-041-042-044-050-067-078-099-281000
...CENTRAL KENTUCKY...

CITY           SKY/WX    TMP DP  RH WIND       PRES   REMARKS
MT STERLING*   PTCLDY    70  64  83 SW5       30.08R
FLEMING/MASON* CLOUDY    69  64  83 S5        30.06S
DANVILLE*      CLEAR     64  63  94 S5        30.07S
RICHMOND*      CLEAR     70  63  78 S5        30.07R
LEXINGTON      CLEAR     67  63  87 SE6       30.06R
FRANKFORT      CLEAR     67  63  87 SE6       30.03R
LOUISVILLE     CLOUDY    70  67  90 SE6       30.00S
LEBANON*         N/A     68  66  94 SE7       30.04S
GLASGOW*       CLOUDY    69  69 100 CALM      30.02S
BOWLING GREEN  CLOUDY    70  67  90 SE3       30.00S
$$

KYZ091>093-OHZ055-061-077-WVZ005-015-034-035-042-281000
...SOUTHERN OHIO/WEST VIRGINIA...

CITY           SKY/WX    TMP DP  RH WIND       PRES   REMARKS
COVINGTON      PTCLDY    68  65  90 S6        30.03R
COLUMBUS       PTCLDY    68  65  90 CALM      30.04R
DAYTON         PTCLDY    72  64  76 S10       30.03R
WILMINGTON     CLOUDY    70  64  81 S7        30.04R
HUNTINGTON       N/A     68  64  87 E5        30.07R
CHARLESTON       N/A     64  62  93 CALM      30.10R
PINEVILLE*     FOG       60  58  91 MISG      30.20S VSB 1
BECKLEY          N/A     65  59  81 SE6       30.19R
BLUEFIELD        N/A     64  58  80 S3        30.21R
LOGAN CO APT*    N/A     68  64  88 CALM      30.13R
$$

VAZ002-007-008-TNZ017-027-036-066-071-281000
...SOUTHWEST VIRGINIA/EAST TENNESSEE...

CITY           SKY/WX    TMP DP  RH WIND       PRES   REMARKS
WISE*            N/A     64  55  72 S3        30.19S
JONESVILLE*      N/A     59  59 100 CALM      30.14S FOG
ABINGDON*        N/A     62  61  97 CALM      30.18R FOG
BRISTOL        FOG       61  60  97 CALM      30.14S VSB 1/8
SEVIERVILLE*   CLOUDY    61  61 100 CALM      30.10R VSB 1/4
KNOXVILLE      FOG       64  64 100 CALM      30.09R VSB 1/4
OAK RIDGE      FOG       67  66  97 CALM      30.11R VSB 1/2
CROSSVILLE     PTCLDY    68  59  73 VRB3      30.11S
NASHVILLE      CLOUDY    72  64  76 SE6       30.01R
$$

...KEY TO REMARKS...
VSB - VISIBILITY IN MILES
WCI - WIND CHILL INDEX
HX  - HEAT INDEX

$$




USA.gov is the U.S. government's official web portal to all federal, state and local government web resources and services.